Weather in Petrovskoye

Russia / Mari El Republic     56°33′06″N   49°15′45″E
temp.,
°C
wind,
m/s
gust,
m/s
humid.,
%
clouds,
%
prec.,
mm/h
press.,
hPa
HPBL,
m
25 february, thu
thu2500:00−26w119779 0.0 103420
03:00−26sw129673 0.0 103319
06:00−25s239767 0.0 103165
09:00−22s489583 0.0 1028260
12:00−19sse51091100 0.0 1024370
15:00−17sse61195100 0.6 1021488
18:00−17sse51195100 0.9 1020624
21:00−17sse41094100 1.2 1018543
26 february, fri
fri2600:00−18se4995100 0.1 1018464
03:00−18se4995100 0.3 1018420
06:00−19se3996100 0.1 1017336
09:00−19se4895100 0.1 1017342
12:00−16se4893100 0.0 1015412
15:00−15se51093100 0.1 1014474
18:00−15se61492100 0.1 1009565
21:00−13se71494100 0.9 1005586
27 february, sat
sat2700:00−13se71394100 4.9 1001623
03:00−12se51194100 6.8 999462
06:00−13ese4994100 0.4 998315
09:00−11e4794100 0.6 998325
12:00−8e4793100 0.4 998397
15:00−8ene4793100 0.6 999419
18:00−10ne4994100 0.3 1001347
21:00−12ne389495 0.4 1002297
28 february, sun
sun2800:00−13nne489497 0.1 1003297
03:00−14nne489494 0.3 1005314
06:00−15nne499496 0.3 1006367
09:00−15nne489398 0.4 1008383
12:00−14n4792100 0.1 1010392
15:00−14n5991100 0.1 1011437
18:00−17n399495 0.0 1014309
21:00−18n3109598 0.1 1015307
1 march, mon
mon100:00−20n379777 0.0 1017181
03:00−22nnw379746 0.0 1019151
06:00−23n36971 0.0 1021120
09:00−19n36941 0.0 1022251
12:00−14nnw249122 0.0 1023308
15:00−12nw249032 0.0 1022382
18:00−17w239547 0.0 102120
21:00−16sw379873 0.0 1020142